Index of /20260415/WXO-DD/model_gdps/15km/12/093
Name Last modified Size Description
Parent Directory -
20260415T12Z_MSC_GDPS_AbsoluteVorticity_IsbL-0200_LatLon0.15_PT093H.grib2 2026-04-15 16:25 1.2M
20260415T12Z_MSC_GDPS_AbsoluteVorticity_IsbL-0250_LatLon0.15_PT093H.grib2 2026-04-15 16:25 1.3M
20260415T12Z_MSC_GDPS_AbsoluteVorticity_IsbL-0500_LatLon0.15_PT093H.grib2 2026-04-15 16:25 1.4M
20260415T12Z_MSC_GDPS_AbsoluteVorticity_IsbL-0700_LatLon0.15_PT093H.grib2 2026-04-15 16:25 1.3M
20260415T12Z_MSC_GDPS_AbsoluteVorticity_IsbL-0850_LatLon0.15_PT093H.grib2 2026-04-15 16:25 1.6M
20260415T12Z_MSC_GDPS_AirTemp_AGL-120m_LatLon0.15_PT093H.grib2 2026-04-15 16:25 908K
20260415T12Z_MSC_GDPS_AirTemp_AGL-2m_LatLon0.15_PT093H.grib2 2026-04-15 16:25 1.0M
20260415T12Z_MSC_GDPS_AirTemp_AGL-40m_LatLon0.15_PT093H.grib2 2026-04-15 16:25 925K
20260415T12Z_MSC_GDPS_AirTemp_AGL-80m_LatLon0.15_PT093H.grib2 2026-04-15 16:25 915K
20260415T12Z_MSC_GDPS_AirTemp_IsbL-0001_LatLon0.15_PT093H.grib2 2026-04-15 16:25 700K
20260415T12Z_MSC_GDPS_AirTemp_IsbL-0005_LatLon0.15_PT093H.grib2 2026-04-15 16:25 682K
20260415T12Z_MSC_GDPS_AirTemp_IsbL-0010_LatLon0.15_PT093H.grib2 2026-04-15 16:25 753K
20260415T12Z_MSC_GDPS_AirTemp_IsbL-0020_LatLon0.15_PT093H.grib2 2026-04-15 16:25 693K
20260415T12Z_MSC_GDPS_AirTemp_IsbL-0030_LatLon0.15_PT093H.grib2 2026-04-15 16:25 745K
20260415T12Z_MSC_GDPS_AirTemp_IsbL-0050_LatLon0.15_PT093H.grib2 2026-04-15 16:25 809K
20260415T12Z_MSC_GDPS_AirTemp_IsbL-0100_LatLon0.15_PT093H.grib2 2026-04-15 16:25 951K
20260415T12Z_MSC_GDPS_AirTemp_IsbL-0150_LatLon0.15_PT093H.grib2 2026-04-15 16:25 970K
20260415T12Z_MSC_GDPS_AirTemp_IsbL-0175_LatLon0.15_PT093H.grib2 2026-04-15 16:25 961K
20260415T12Z_MSC_GDPS_AirTemp_IsbL-0200_LatLon0.15_PT093H.grib2 2026-04-15 16:25 970K
20260415T12Z_MSC_GDPS_AirTemp_IsbL-0225_LatLon0.15_PT093H.grib2 2026-04-15 16:25 970K
20260415T12Z_MSC_GDPS_AirTemp_IsbL-0250_LatLon0.15_PT093H.grib2 2026-04-15 16:25 1.0M
20260415T12Z_MSC_GDPS_AirTemp_IsbL-0275_LatLon0.15_PT093H.grib2 2026-04-15 16:25 1.0M
20260415T12Z_MSC_GDPS_AirTemp_IsbL-0300_LatLon0.15_PT093H.grib2 2026-04-15 16:25 1.0M
20260415T12Z_MSC_GDPS_AirTemp_IsbL-0350_LatLon0.15_PT093H.grib2 2026-04-15 16:25 1.0M
20260415T12Z_MSC_GDPS_AirTemp_IsbL-0400_LatLon0.15_PT093H.grib2 2026-04-15 16:25 935K
20260415T12Z_MSC_GDPS_AirTemp_IsbL-0450_LatLon0.15_PT093H.grib2 2026-04-15 16:25 958K
20260415T12Z_MSC_GDPS_AirTemp_IsbL-0500_LatLon0.15_PT093H.grib2 2026-04-15 16:25 1.0M
20260415T12Z_MSC_GDPS_AirTemp_IsbL-0550_LatLon0.15_PT093H.grib2 2026-04-15 16:25 1.0M
20260415T12Z_MSC_GDPS_AirTemp_IsbL-0600_LatLon0.15_PT093H.grib2 2026-04-15 16:25 892K
20260415T12Z_MSC_GDPS_AirTemp_IsbL-0650_LatLon0.15_PT093H.grib2 2026-04-15 16:25 923K
20260415T12Z_MSC_GDPS_AirTemp_IsbL-0700_LatLon0.15_PT093H.grib2 2026-04-15 16:25 955K
20260415T12Z_MSC_GDPS_AirTemp_IsbL-0750_LatLon0.15_PT093H.grib2 2026-04-15 16:25 1.0M
20260415T12Z_MSC_GDPS_AirTemp_IsbL-0800_LatLon0.15_PT093H.grib2 2026-04-15 16:25 1.1M
20260415T12Z_MSC_GDPS_AirTemp_IsbL-0850_LatLon0.15_PT093H.grib2 2026-04-15 16:25 1.1M
20260415T12Z_MSC_GDPS_AirTemp_IsbL-0875_LatLon0.15_PT093H.grib2 2026-04-15 16:25 1.2M
20260415T12Z_MSC_GDPS_AirTemp_IsbL-0900_LatLon0.15_PT093H.grib2 2026-04-15 16:25 1.2M
20260415T12Z_MSC_GDPS_AirTemp_IsbL-0925_LatLon0.15_PT093H.grib2 2026-04-15 16:25 1.1M
20260415T12Z_MSC_GDPS_AirTemp_IsbL-0950_LatLon0.15_PT093H.grib2 2026-04-15 16:25 1.1M
20260415T12Z_MSC_GDPS_AirTemp_IsbL-0970_LatLon0.15_PT093H.grib2 2026-04-15 16:25 1.1M
20260415T12Z_MSC_GDPS_AirTemp_IsbL-0985_LatLon0.15_PT093H.grib2 2026-04-15 16:25 1.1M
20260415T12Z_MSC_GDPS_AirTemp_IsbL-1000_LatLon0.15_PT093H.grib2 2026-04-15 16:25 1.1M
20260415T12Z_MSC_GDPS_AirTemp_IsbL-1015_LatLon0.15_PT093H.grib2 2026-04-15 16:25 1.1M
20260415T12Z_MSC_GDPS_Albedo_Sfc_LatLon0.15_PT093H.grib2 2026-04-15 16:25 245K
20260415T12Z_MSC_GDPS_CAPE_Sfc_LatLon0.15_PT093H.grib2 2026-04-15 16:25 3.8M
20260415T12Z_MSC_GDPS_CIN_Sfc_LatLon0.15_PT093H.grib2 2026-04-15 16:25 2.9M
20260415T12Z_MSC_GDPS_CloudWater_EAtm_LatLon0.15_PT093H.grib2 2026-04-15 16:25 530K
20260415T12Z_MSC_GDPS_ConvectivePrecip-Accum_Sfc_LatLon0.15_PT093H.grib2 2026-04-15 16:25 3.2M
20260415T12Z_MSC_GDPS_DewPointDepression_AGL-2m_LatLon0.15_PT093H.grib2 2026-04-15 16:25 750K
20260415T12Z_MSC_GDPS_DewPointDepression_IsbL-0010_LatLon0.15_PT093H.grib2 2026-04-15 16:25 5.0K
20260415T12Z_MSC_GDPS_DewPointDepression_IsbL-0020_LatLon0.15_PT093H.grib2 2026-04-15 16:25 81K
20260415T12Z_MSC_GDPS_DewPointDepression_IsbL-0030_LatLon0.15_PT093H.grib2 2026-04-15 16:25 71K
20260415T12Z_MSC_GDPS_DewPointDepression_IsbL-0050_LatLon0.15_PT093H.grib2 2026-04-15 16:25 357K
20260415T12Z_MSC_GDPS_DewPointDepression_IsbL-0100_LatLon0.15_PT093H.grib2 2026-04-15 16:25 377K
20260415T12Z_MSC_GDPS_DewPointDepression_IsbL-0150_LatLon0.15_PT093H.grib2 2026-04-15 16:25 456K
20260415T12Z_MSC_GDPS_DewPointDepression_IsbL-0175_LatLon0.15_PT093H.grib2 2026-04-15 16:25 543K
20260415T12Z_MSC_GDPS_DewPointDepression_IsbL-0200_LatLon0.15_PT093H.grib2 2026-04-15 16:25 613K
20260415T12Z_MSC_GDPS_DewPointDepression_IsbL-0225_LatLon0.15_PT093H.grib2 2026-04-15 16:25 743K
20260415T12Z_MSC_GDPS_DewPointDepression_IsbL-0250_LatLon0.15_PT093H.grib2 2026-04-15 16:25 865K
20260415T12Z_MSC_GDPS_DewPointDepression_IsbL-0275_LatLon0.15_PT093H.grib2 2026-04-15 16:25 880K
20260415T12Z_MSC_GDPS_DewPointDepression_IsbL-0300_LatLon0.15_PT093H.grib2 2026-04-15 16:25 915K
20260415T12Z_MSC_GDPS_DewPointDepression_IsbL-0350_LatLon0.15_PT093H.grib2 2026-04-15 16:25 940K
20260415T12Z_MSC_GDPS_DewPointDepression_IsbL-0400_LatLon0.15_PT093H.grib2 2026-04-15 16:25 1.0M
20260415T12Z_MSC_GDPS_DewPointDepression_IsbL-0450_LatLon0.15_PT093H.grib2 2026-04-15 16:25 1.0M
20260415T12Z_MSC_GDPS_DewPointDepression_IsbL-0500_LatLon0.15_PT093H.grib2 2026-04-15 16:25 1.0M
20260415T12Z_MSC_GDPS_DewPointDepression_IsbL-0550_LatLon0.15_PT093H.grib2 2026-04-15 16:25 1.0M
20260415T12Z_MSC_GDPS_DewPointDepression_IsbL-0600_LatLon0.15_PT093H.grib2 2026-04-15 16:25 1.1M
20260415T12Z_MSC_GDPS_DewPointDepression_IsbL-0650_LatLon0.15_PT093H.grib2 2026-04-15 16:25 1.1M
20260415T12Z_MSC_GDPS_DewPointDepression_IsbL-0700_LatLon0.15_PT093H.grib2 2026-04-15 16:25 1.1M
20260415T12Z_MSC_GDPS_DewPointDepression_IsbL-0750_LatLon0.15_PT093H.grib2 2026-04-15 16:25 1.1M
20260415T12Z_MSC_GDPS_DewPointDepression_IsbL-0800_LatLon0.15_PT093H.grib2 2026-04-15 16:25 1.2M
20260415T12Z_MSC_GDPS_DewPointDepression_IsbL-0850_LatLon0.15_PT093H.grib2 2026-04-15 16:25 1.2M
20260415T12Z_MSC_GDPS_DewPointDepression_IsbL-0875_LatLon0.15_PT093H.grib2 2026-04-15 16:25 1.1M
20260415T12Z_MSC_GDPS_DewPointDepression_IsbL-0900_LatLon0.15_PT093H.grib2 2026-04-15 16:25 1.1M
20260415T12Z_MSC_GDPS_DewPointDepression_IsbL-0925_LatLon0.15_PT093H.grib2 2026-04-15 16:25 1.0M
20260415T12Z_MSC_GDPS_DewPointDepression_IsbL-0950_LatLon0.15_PT093H.grib2 2026-04-15 16:25 1.0M
20260415T12Z_MSC_GDPS_DewPointDepression_IsbL-0970_LatLon0.15_PT093H.grib2 2026-04-15 16:25 1.0M
20260415T12Z_MSC_GDPS_DewPointDepression_IsbL-0985_LatLon0.15_PT093H.grib2 2026-04-15 16:25 1.0M
20260415T12Z_MSC_GDPS_DewPointDepression_IsbL-1000_LatLon0.15_PT093H.grib2 2026-04-15 16:25 966K
20260415T12Z_MSC_GDPS_DewPointDepression_IsbL-1015_LatLon0.15_PT093H.grib2 2026-04-15 16:25 903K
20260415T12Z_MSC_GDPS_DewPoint_AGL-2m_LatLon0.15_PT093H.grib2 2026-04-15 16:25 613K
20260415T12Z_MSC_GDPS_DownwardLongwaveRadiationFlux-Accum_Sfc_LatLon0.15_PT093H.grib2 2026-04-15 16:25 713K
20260415T12Z_MSC_GDPS_DownwardShortwaveRadiationFlux-Accum_NTAtm_LatLon0.15_PT093H.grib2 2026-04-15 16:25 263K
20260415T12Z_MSC_GDPS_DownwardShortwaveRadiationFlux-Accum_Sfc_LatLon0.15_PT093H.grib2 2026-04-15 16:25 949K
20260415T12Z_MSC_GDPS_FreezingRain-Accum1h_Sfc_LatLon0.15_PT093H.grib2 2026-04-15 16:25 44K
20260415T12Z_MSC_GDPS_FreezingRain-Accum3h_Sfc_LatLon0.15_PT093H.grib2 2026-04-15 16:25 49K
20260415T12Z_MSC_GDPS_FreezingRain-Accum_Sfc_LatLon0.15_PT093H.grib2 2026-04-15 16:25 273K
20260415T12Z_MSC_GDPS_GeopotentialHeight_IsbL-0001_LatLon0.15_PT093H.grib2 2026-04-15 16:25 383K
20260415T12Z_MSC_GDPS_GeopotentialHeight_IsbL-0005_LatLon0.15_PT093H.grib2 2026-04-15 16:25 501K
20260415T12Z_MSC_GDPS_GeopotentialHeight_IsbL-0010_LatLon0.15_PT093H.grib2 2026-04-15 16:25 434K
20260415T12Z_MSC_GDPS_GeopotentialHeight_IsbL-0020_LatLon0.15_PT093H.grib2 2026-04-15 16:25 575K
20260415T12Z_MSC_GDPS_GeopotentialHeight_IsbL-0030_LatLon0.15_PT093H.grib2 2026-04-15 16:25 578K
20260415T12Z_MSC_GDPS_GeopotentialHeight_IsbL-0050_LatLon0.15_PT093H.grib2 2026-04-15 16:25 581K
20260415T12Z_MSC_GDPS_GeopotentialHeight_IsbL-0100_LatLon0.15_PT093H.grib2 2026-04-15 16:25 616K
20260415T12Z_MSC_GDPS_GeopotentialHeight_IsbL-0150_LatLon0.15_PT093H.grib2 2026-04-15 16:25 631K
20260415T12Z_MSC_GDPS_GeopotentialHeight_IsbL-0175_LatLon0.15_PT093H.grib2 2026-04-15 16:25 635K
20260415T12Z_MSC_GDPS_GeopotentialHeight_IsbL-0200_LatLon0.15_PT093H.grib2 2026-04-15 16:25 639K
20260415T12Z_MSC_GDPS_GeopotentialHeight_IsbL-0225_LatLon0.15_PT093H.grib2 2026-04-15 16:25 641K
20260415T12Z_MSC_GDPS_GeopotentialHeight_IsbL-0250_LatLon0.15_PT093H.grib2 2026-04-15 16:25 641K
20260415T12Z_MSC_GDPS_GeopotentialHeight_IsbL-0275_LatLon0.15_PT093H.grib2 2026-04-15 16:25 637K
20260415T12Z_MSC_GDPS_GeopotentialHeight_IsbL-0300_LatLon0.15_PT093H.grib2 2026-04-15 16:25 636K
20260415T12Z_MSC_GDPS_GeopotentialHeight_IsbL-0350_LatLon0.15_PT093H.grib2 2026-04-15 16:25 625K
20260415T12Z_MSC_GDPS_GeopotentialHeight_IsbL-0400_LatLon0.15_PT093H.grib2 2026-04-15 16:25 618K
20260415T12Z_MSC_GDPS_GeopotentialHeight_IsbL-0450_LatLon0.15_PT093H.grib2 2026-04-15 16:25 539K
20260415T12Z_MSC_GDPS_GeopotentialHeight_IsbL-0500_LatLon0.15_PT093H.grib2 2026-04-15 16:25 530K
20260415T12Z_MSC_GDPS_GeopotentialHeight_IsbL-0550_LatLon0.15_PT093H.grib2 2026-04-15 16:25 693K
20260415T12Z_MSC_GDPS_GeopotentialHeight_IsbL-0600_LatLon0.15_PT093H.grib2 2026-04-15 16:25 688K
20260415T12Z_MSC_GDPS_GeopotentialHeight_IsbL-0650_LatLon0.15_PT093H.grib2 2026-04-15 16:25 686K
20260415T12Z_MSC_GDPS_GeopotentialHeight_IsbL-0700_LatLon0.15_PT093H.grib2 2026-04-15 16:25 686K
20260415T12Z_MSC_GDPS_GeopotentialHeight_IsbL-0750_LatLon0.15_PT093H.grib2 2026-04-15 16:25 686K
20260415T12Z_MSC_GDPS_GeopotentialHeight_IsbL-0800_LatLon0.15_PT093H.grib2 2026-04-15 16:25 636K
20260415T12Z_MSC_GDPS_GeopotentialHeight_IsbL-0850_LatLon0.15_PT093H.grib2 2026-04-15 16:25 646K
20260415T12Z_MSC_GDPS_GeopotentialHeight_IsbL-0875_LatLon0.15_PT093H.grib2 2026-04-15 16:25 651K
20260415T12Z_MSC_GDPS_GeopotentialHeight_IsbL-0900_LatLon0.15_PT093H.grib2 2026-04-15 16:25 659K
20260415T12Z_MSC_GDPS_GeopotentialHeight_IsbL-0925_LatLon0.15_PT093H.grib2 2026-04-15 16:25 664K
20260415T12Z_MSC_GDPS_GeopotentialHeight_IsbL-0950_LatLon0.15_PT093H.grib2 2026-04-15 16:25 735K
20260415T12Z_MSC_GDPS_GeopotentialHeight_IsbL-0970_LatLon0.15_PT093H.grib2 2026-04-15 16:25 748K
20260415T12Z_MSC_GDPS_GeopotentialHeight_IsbL-0985_LatLon0.15_PT093H.grib2 2026-04-15 16:25 764K
20260415T12Z_MSC_GDPS_GeopotentialHeight_IsbL-1000_LatLon0.15_PT093H.grib2 2026-04-15 16:25 787K
20260415T12Z_MSC_GDPS_GeopotentialHeight_IsbL-1015_LatLon0.15_PT093H.grib2 2026-04-15 16:25 810K
20260415T12Z_MSC_GDPS_Humidex_Sfc_LatLon0.15_PT093H.grib2 2026-04-15 16:25 5.3M
20260415T12Z_MSC_GDPS_IcePellets-Accum1h_Sfc_LatLon0.15_PT093H.grib2 2026-04-15 16:25 27K
20260415T12Z_MSC_GDPS_IcePellets-Accum3h_Sfc_LatLon0.15_PT093H.grib2 2026-04-15 16:25 33K
20260415T12Z_MSC_GDPS_IcePellets-Accum_Sfc_LatLon0.15_PT093H.grib2 2026-04-15 16:25 137K
20260415T12Z_MSC_GDPS_KIndex_Sfc_LatLon0.15_PT093H.grib2 2026-04-15 16:25 6.5M
20260415T12Z_MSC_GDPS_LatentHeatNetFlux_Sfc_LatLon0.15_PT093H.grib2 2026-04-15 16:25 542K
20260415T12Z_MSC_GDPS_LiftedIndex-MU-VT_IsbL-0500_LatLon0.15_PT093H.grib2 2026-04-15 16:25 5.4M
20260415T12Z_MSC_GDPS_NetLongwaveRadiationFlux-Accum_Sfc_LatLon0.15_PT093H.grib2 2026-04-15 16:25 945K
20260415T12Z_MSC_GDPS_NetShortwaveRadiationFlux-Accum_Sfc_LatLon0.15_PT093H.grib2 2026-04-15 16:25 941K
20260415T12Z_MSC_GDPS_O3MixingRatio_LatLon0.15_PT093H.grib2 2026-04-15 16:49 2.2M
20260415T12Z_MSC_GDPS_O3_EAtm_LatLon0.15_PT093H.grib2 2026-04-15 16:49 2.1M
20260415T12Z_MSC_GDPS_PlanetaryBoundaryLayerHeight_Sfc_LatLon0.15_PT093H.grib2 2026-04-15 16:25 2.5M
20260415T12Z_MSC_GDPS_Precip-Accum1h_Sfc_LatLon0.15_PT093H.grib2 2026-04-15 16:25 3.2M
20260415T12Z_MSC_GDPS_Precip-Accum3h_Sfc_LatLon0.15_PT093H.grib2 2026-04-15 16:25 3.5M
20260415T12Z_MSC_GDPS_Precip-Accum_Sfc_LatLon0.15_PT093H.grib2 2026-04-15 16:25 5.0M
20260415T12Z_MSC_GDPS_PrecipRate_Sfc_LatLon0.15_PT093H.grib2 2026-04-15 16:25 3.1M
20260415T12Z_MSC_GDPS_PrecipType-Instant_Sfc_LatLon0.15_PT093H.grib2 2026-04-15 16:25 1.5M
20260415T12Z_MSC_GDPS_Pressure_MSL_LatLon0.15_PT093H.grib2 2026-04-15 16:25 719K
20260415T12Z_MSC_GDPS_Pressure_PVU-1.5_LatLon0.15_PT093H.grib2 2026-04-15 16:25 5.8M
20260415T12Z_MSC_GDPS_Pressure_PVU-1_LatLon0.15_PT093H.grib2 2026-04-15 16:25 6.0M
20260415T12Z_MSC_GDPS_Pressure_PVU-2_LatLon0.15_PT093H.grib2 2026-04-15 16:25 5.6M
20260415T12Z_MSC_GDPS_Pressure_Sfc_LatLon0.15_PT093H.grib2 2026-04-15 16:25 1.1M
20260415T12Z_MSC_GDPS_RadiativeTemp_Sfc_LatLon0.15_PT093H.grib2 2026-04-15 16:25 681K
20260415T12Z_MSC_GDPS_Rain-Accum1h_Sfc_LatLon0.15_PT093H.grib2 2026-04-15 16:25 1.6M
20260415T12Z_MSC_GDPS_Rain-Accum3h_Sfc_LatLon0.15_PT093H.grib2 2026-04-15 16:25 1.8M
20260415T12Z_MSC_GDPS_Rain-Accum_Sfc_LatLon0.15_PT093H.grib2 2026-04-15 16:25 3.7M
20260415T12Z_MSC_GDPS_RelativeHumidity_AGL-2m_LatLon0.15_PT093H.grib2 2026-04-15 16:25 1.1M
20260415T12Z_MSC_GDPS_RelativeHumidity_IsbL-0010_LatLon0.15_PT093H.grib2 2026-04-15 16:25 253K
20260415T12Z_MSC_GDPS_RelativeHumidity_IsbL-0020_LatLon0.15_PT093H.grib2 2026-04-15 16:25 372K
20260415T12Z_MSC_GDPS_RelativeHumidity_IsbL-0030_LatLon0.15_PT093H.grib2 2026-04-15 16:25 376K
20260415T12Z_MSC_GDPS_RelativeHumidity_IsbL-0050_LatLon0.15_PT093H.grib2 2026-04-15 16:25 410K
20260415T12Z_MSC_GDPS_RelativeHumidity_IsbL-0100_LatLon0.15_PT093H.grib2 2026-04-15 16:25 483K
20260415T12Z_MSC_GDPS_RelativeHumidity_IsbL-0150_LatLon0.15_PT093H.grib2 2026-04-15 16:25 652K
20260415T12Z_MSC_GDPS_RelativeHumidity_IsbL-0175_LatLon0.15_PT093H.grib2 2026-04-15 16:25 789K
20260415T12Z_MSC_GDPS_RelativeHumidity_IsbL-0200_LatLon0.15_PT093H.grib2 2026-04-15 16:25 688K
20260415T12Z_MSC_GDPS_RelativeHumidity_IsbL-0225_LatLon0.15_PT093H.grib2 2026-04-15 16:25 771K
20260415T12Z_MSC_GDPS_RelativeHumidity_IsbL-0250_LatLon0.15_PT093H.grib2 2026-04-15 16:25 865K
20260415T12Z_MSC_GDPS_RelativeHumidity_IsbL-0275_LatLon0.15_PT093H.grib2 2026-04-15 16:25 890K
20260415T12Z_MSC_GDPS_RelativeHumidity_IsbL-0300_LatLon0.15_PT093H.grib2 2026-04-15 16:25 934K
20260415T12Z_MSC_GDPS_RelativeHumidity_IsbL-0350_LatLon0.15_PT093H.grib2 2026-04-15 16:25 948K
20260415T12Z_MSC_GDPS_RelativeHumidity_IsbL-0400_LatLon0.15_PT093H.grib2 2026-04-15 16:25 1.0M
20260415T12Z_MSC_GDPS_RelativeHumidity_IsbL-0450_LatLon0.15_PT093H.grib2 2026-04-15 16:25 1.0M
20260415T12Z_MSC_GDPS_RelativeHumidity_IsbL-0500_LatLon0.15_PT093H.grib2 2026-04-15 16:25 1.0M
20260415T12Z_MSC_GDPS_RelativeHumidity_IsbL-0550_LatLon0.15_PT093H.grib2 2026-04-15 16:25 1.0M
20260415T12Z_MSC_GDPS_RelativeHumidity_IsbL-0600_LatLon0.15_PT093H.grib2 2026-04-15 16:25 1.0M
20260415T12Z_MSC_GDPS_RelativeHumidity_IsbL-0650_LatLon0.15_PT093H.grib2 2026-04-15 16:25 1.1M
20260415T12Z_MSC_GDPS_RelativeHumidity_IsbL-0700_LatLon0.15_PT093H.grib2 2026-04-15 16:25 1.1M
20260415T12Z_MSC_GDPS_RelativeHumidity_IsbL-0750_LatLon0.15_PT093H.grib2 2026-04-15 16:25 1.2M
20260415T12Z_MSC_GDPS_RelativeHumidity_IsbL-0800_LatLon0.15_PT093H.grib2 2026-04-15 16:25 1.2M
20260415T12Z_MSC_GDPS_RelativeHumidity_IsbL-0850_LatLon0.15_PT093H.grib2 2026-04-15 16:25 1.3M
20260415T12Z_MSC_GDPS_RelativeHumidity_IsbL-0875_LatLon0.15_PT093H.grib2 2026-04-15 16:25 1.3M
20260415T12Z_MSC_GDPS_RelativeHumidity_IsbL-0900_LatLon0.15_PT093H.grib2 2026-04-15 16:25 1.2M
20260415T12Z_MSC_GDPS_RelativeHumidity_IsbL-0925_LatLon0.15_PT093H.grib2 2026-04-15 16:25 1.2M
20260415T12Z_MSC_GDPS_RelativeHumidity_IsbL-0950_LatLon0.15_PT093H.grib2 2026-04-15 16:25 1.2M
20260415T12Z_MSC_GDPS_RelativeHumidity_IsbL-0970_LatLon0.15_PT093H.grib2 2026-04-15 16:25 1.2M
20260415T12Z_MSC_GDPS_RelativeHumidity_IsbL-0985_LatLon0.15_PT093H.grib2 2026-04-15 16:25 1.1M
20260415T12Z_MSC_GDPS_RelativeHumidity_IsbL-1000_LatLon0.15_PT093H.grib2 2026-04-15 16:25 1.1M
20260415T12Z_MSC_GDPS_RelativeHumidity_IsbL-1015_LatLon0.15_PT093H.grib2 2026-04-15 16:25 1.0M
20260415T12Z_MSC_GDPS_RelativeVorticity_IsbL-0200_LatLon0.15_PT093H.grib2 2026-04-15 16:25 1.2M
20260415T12Z_MSC_GDPS_RelativeVorticity_IsbL-0250_LatLon0.15_PT093H.grib2 2026-04-15 16:25 1.6M
20260415T12Z_MSC_GDPS_RelativeVorticity_IsbL-0500_LatLon0.15_PT093H.grib2 2026-04-15 16:25 1.4M
20260415T12Z_MSC_GDPS_RelativeVorticity_IsbL-0700_LatLon0.15_PT093H.grib2 2026-04-15 16:25 1.6M
20260415T12Z_MSC_GDPS_RelativeVorticity_IsbL-0850_LatLon0.15_PT093H.grib2 2026-04-15 16:25 1.6M
20260415T12Z_MSC_GDPS_Runoff-Accum_Sfc_LatLon0.15_PT093H.grib2 2026-04-15 16:25 140K
20260415T12Z_MSC_GDPS_SensibleHeatNetFlux_Sfc_LatLon0.15_PT093H.grib2 2026-04-15 16:25 649K
20260415T12Z_MSC_GDPS_ShowalterIndex_IsbL-0500_LatLon0.15_PT093H.grib2 2026-04-15 16:25 6.2M
20260415T12Z_MSC_GDPS_Snow-Accum1h_Sfc_LatLon0.15_PT093H.grib2 2026-04-15 16:25 1.3M
20260415T12Z_MSC_GDPS_Snow-Accum3h_Sfc_LatLon0.15_PT093H.grib2 2026-04-15 16:25 1.2M
20260415T12Z_MSC_GDPS_Snow-Accum_Sfc_LatLon0.15_PT093H.grib2 2026-04-15 16:25 2.0M
20260415T12Z_MSC_GDPS_SnowDensity_Sfc_LatLon0.15_PT093H.grib2 2026-04-15 16:25 270K
20260415T12Z_MSC_GDPS_SnowDepth_Sfc_LatLon0.15_PT093H.grib2 2026-04-15 16:25 1.8M
20260415T12Z_MSC_GDPS_SoilTemp_DBS-0to10cm_LatLon0.15_PT093H.grib2 2026-04-15 16:25 504K
20260415T12Z_MSC_GDPS_SoilTemp_Sfc_LatLon0.15_PT093H.grib2 2026-04-15 16:25 578K
20260415T12Z_MSC_GDPS_SoilVolumetricIceContent_Sfc_LatLon0.15_PT093H.grib2 2026-04-15 16:25 223K
20260415T12Z_MSC_GDPS_SoilVolumetricWaterContent_DBS-0to10cm_LatLon0.15_PT093H.grib2 2026-04-15 16:25 554K
20260415T12Z_MSC_GDPS_SoilVolumetricWaterContent_DBS-0to1cm_LatLon0.15_PT093H.grib2 2026-04-15 16:25 653K
20260415T12Z_MSC_GDPS_SpecificHumidity_AGL-120m_LatLon0.15_PT093H.grib2 2026-04-15 16:25 1.1M
20260415T12Z_MSC_GDPS_SpecificHumidity_AGL-2m_LatLon0.15_PT093H.grib2 2026-04-15 16:25 1.2M
20260415T12Z_MSC_GDPS_SpecificHumidity_AGL-40m_LatLon0.15_PT093H.grib2 2026-04-15 16:25 1.1M
20260415T12Z_MSC_GDPS_SpecificHumidity_AGL-80m_LatLon0.15_PT093H.grib2 2026-04-15 16:25 1.1M
20260415T12Z_MSC_GDPS_SpecificHumidity_IsbL-0001_LatLon0.15_PT093H.grib2 2026-04-15 16:25 1.2M
20260415T12Z_MSC_GDPS_SpecificHumidity_IsbL-0005_LatLon0.15_PT093H.grib2 2026-04-15 16:25 1.1M
20260415T12Z_MSC_GDPS_SpecificHumidity_IsbL-0010_LatLon0.15_PT093H.grib2 2026-04-15 16:25 1.3M
20260415T12Z_MSC_GDPS_SpecificHumidity_IsbL-0020_LatLon0.15_PT093H.grib2 2026-04-15 16:25 1.6M
20260415T12Z_MSC_GDPS_SpecificHumidity_IsbL-0030_LatLon0.15_PT093H.grib2 2026-04-15 16:25 1.6M
20260415T12Z_MSC_GDPS_SpecificHumidity_IsbL-0050_LatLon0.15_PT093H.grib2 2026-04-15 16:25 1.3M
20260415T12Z_MSC_GDPS_SpecificHumidity_IsbL-0100_LatLon0.15_PT093H.grib2 2026-04-15 16:25 1.3M
20260415T12Z_MSC_GDPS_SpecificHumidity_IsbL-0150_LatLon0.15_PT093H.grib2 2026-04-15 16:25 1.3M
20260415T12Z_MSC_GDPS_SpecificHumidity_IsbL-0175_LatLon0.15_PT093H.grib2 2026-04-15 16:25 1.3M
20260415T12Z_MSC_GDPS_SpecificHumidity_IsbL-0200_LatLon0.15_PT093H.grib2 2026-04-15 16:25 1.3M
20260415T12Z_MSC_GDPS_SpecificHumidity_IsbL-0225_LatLon0.15_PT093H.grib2 2026-04-15 16:25 1.3M
20260415T12Z_MSC_GDPS_SpecificHumidity_IsbL-0250_LatLon0.15_PT093H.grib2 2026-04-15 16:25 1.4M
20260415T12Z_MSC_GDPS_SpecificHumidity_IsbL-0275_LatLon0.15_PT093H.grib2 2026-04-15 16:25 1.3M
20260415T12Z_MSC_GDPS_SpecificHumidity_IsbL-0300_LatLon0.15_PT093H.grib2 2026-04-15 16:25 1.2M
20260415T12Z_MSC_GDPS_SpecificHumidity_IsbL-0350_LatLon0.15_PT093H.grib2 2026-04-15 16:25 1.5M
20260415T12Z_MSC_GDPS_SpecificHumidity_IsbL-0400_LatLon0.15_PT093H.grib2 2026-04-15 16:25 1.5M
20260415T12Z_MSC_GDPS_SpecificHumidity_IsbL-0450_LatLon0.15_PT093H.grib2 2026-04-15 16:25 1.6M
20260415T12Z_MSC_GDPS_SpecificHumidity_IsbL-0500_LatLon0.15_PT093H.grib2 2026-04-15 16:25 1.4M
20260415T12Z_MSC_GDPS_SpecificHumidity_IsbL-0550_LatLon0.15_PT093H.grib2 2026-04-15 16:25 1.6M
20260415T12Z_MSC_GDPS_SpecificHumidity_IsbL-0600_LatLon0.15_PT093H.grib2 2026-04-15 16:25 1.7M
20260415T12Z_MSC_GDPS_SpecificHumidity_IsbL-0650_LatLon0.15_PT093H.grib2 2026-04-15 16:25 1.5M
20260415T12Z_MSC_GDPS_SpecificHumidity_IsbL-0700_LatLon0.15_PT093H.grib2 2026-04-15 16:25 1.6M
20260415T12Z_MSC_GDPS_SpecificHumidity_IsbL-0750_LatLon0.15_PT093H.grib2 2026-04-15 16:25 1.7M
20260415T12Z_MSC_GDPS_SpecificHumidity_IsbL-0800_LatLon0.15_PT093H.grib2 2026-04-15 16:25 1.8M
20260415T12Z_MSC_GDPS_SpecificHumidity_IsbL-0850_LatLon0.15_PT093H.grib2 2026-04-15 16:25 1.9M
20260415T12Z_MSC_GDPS_SpecificHumidity_IsbL-0875_LatLon0.15_PT093H.grib2 2026-04-15 16:25 1.9M
20260415T12Z_MSC_GDPS_SpecificHumidity_IsbL-0900_LatLon0.15_PT093H.grib2 2026-04-15 16:25 1.9M
20260415T12Z_MSC_GDPS_SpecificHumidity_IsbL-0925_LatLon0.15_PT093H.grib2 2026-04-15 16:25 1.6M
20260415T12Z_MSC_GDPS_SpecificHumidity_IsbL-0950_LatLon0.15_PT093H.grib2 2026-04-15 16:25 1.5M
20260415T12Z_MSC_GDPS_SpecificHumidity_IsbL-0970_LatLon0.15_PT093H.grib2 2026-04-15 16:25 1.5M
20260415T12Z_MSC_GDPS_SpecificHumidity_IsbL-0985_LatLon0.15_PT093H.grib2 2026-04-15 16:25 1.5M
20260415T12Z_MSC_GDPS_SpecificHumidity_IsbL-1000_LatLon0.15_PT093H.grib2 2026-04-15 16:25 1.5M
20260415T12Z_MSC_GDPS_SpecificHumidity_IsbL-1015_LatLon0.15_PT093H.grib2 2026-04-15 16:25 1.4M
20260415T12Z_MSC_GDPS_SpecificHumidity_Sfc_LatLon0.15_PT093H.grib2 2026-04-15 16:25 672K
20260415T12Z_MSC_GDPS_Thickness_IsbL-0850to0700_LatLon0.15_PT093H.grib2 2026-04-15 16:25 470K
20260415T12Z_MSC_GDPS_Thickness_IsbL-1000to0500_LatLon0.15_PT093H.grib2 2026-04-15 16:25 376K
20260415T12Z_MSC_GDPS_Thickness_IsbL-1000to0850_LatLon0.15_PT093H.grib2 2026-04-15 16:25 493K
20260415T12Z_MSC_GDPS_TotalCloudCover_Sfc_LatLon0.15_PT093H.grib2 2026-04-15 16:25 812K
20260415T12Z_MSC_GDPS_TotalTotalsIndex_Sfc_LatLon0.15_PT093H.grib2 2026-04-15 16:25 6.2M
20260415T12Z_MSC_GDPS_UVIndex-ClearSky_Sfc_LatLon0.15_PT093H.grib2 2026-04-15 16:49 1.0M
20260415T12Z_MSC_GDPS_UVIndex_Sfc_LatLon0.15_PT093H.grib2 2026-04-15 16:49 1.4M
20260415T12Z_MSC_GDPS_UpwardLongwaveRadiationFlux_NTAtm_LatLon0.15_PT093H.grib2 2026-04-15 16:25 830K
20260415T12Z_MSC_GDPS_VerticalVelocity_IsbL-0200_LatLon0.15_PT093H.grib2 2026-04-15 16:25 1.1M
20260415T12Z_MSC_GDPS_VerticalVelocity_IsbL-0250_LatLon0.15_PT093H.grib2 2026-04-15 16:25 1.0M
20260415T12Z_MSC_GDPS_VerticalVelocity_IsbL-0500_LatLon0.15_PT093H.grib2 2026-04-15 16:25 1.2M
20260415T12Z_MSC_GDPS_VerticalVelocity_IsbL-0600_LatLon0.15_PT093H.grib2 2026-04-15 16:25 1.3M
20260415T12Z_MSC_GDPS_VerticalVelocity_IsbL-0700_LatLon0.15_PT093H.grib2 2026-04-15 16:25 1.4M
20260415T12Z_MSC_GDPS_VerticalVelocity_IsbL-0850_LatLon0.15_PT093H.grib2 2026-04-15 16:25 1.3M
20260415T12Z_MSC_GDPS_WindChill_Sfc_LatLon0.15_PT093H.grib2 2026-04-15 16:25 5.3M
20260415T12Z_MSC_GDPS_WindDir_AGL-10m_LatLon0.15_PT093H.grib2 2026-04-15 16:25 1.3M
20260415T12Z_MSC_GDPS_WindDir_AGL-120m_LatLon0.15_PT093H.grib2 2026-04-15 16:25 1.4M
20260415T12Z_MSC_GDPS_WindDir_AGL-40m_LatLon0.15_PT093H.grib2 2026-04-15 16:25 1.4M
20260415T12Z_MSC_GDPS_WindDir_AGL-80m_LatLon0.15_PT093H.grib2 2026-04-15 16:25 1.4M
20260415T12Z_MSC_GDPS_WindDir_IsbL-0001_LatLon0.15_PT093H.grib2 2026-04-15 16:25 630K
20260415T12Z_MSC_GDPS_WindDir_IsbL-0005_LatLon0.15_PT093H.grib2 2026-04-15 16:25 804K
20260415T12Z_MSC_GDPS_WindDir_IsbL-0010_LatLon0.15_PT093H.grib2 2026-04-15 16:25 839K
20260415T12Z_MSC_GDPS_WindDir_IsbL-0020_LatLon0.15_PT093H.grib2 2026-04-15 16:25 922K
20260415T12Z_MSC_GDPS_WindDir_IsbL-0030_LatLon0.15_PT093H.grib2 2026-04-15 16:25 892K
20260415T12Z_MSC_GDPS_WindDir_IsbL-0050_LatLon0.15_PT093H.grib2 2026-04-15 16:25 943K
20260415T12Z_MSC_GDPS_WindDir_IsbL-0100_LatLon0.15_PT093H.grib2 2026-04-15 16:25 1.0M
20260415T12Z_MSC_GDPS_WindDir_IsbL-0150_LatLon0.15_PT093H.grib2 2026-04-15 16:25 1.0M
20260415T12Z_MSC_GDPS_WindDir_IsbL-0175_LatLon0.15_PT093H.grib2 2026-04-15 16:25 1.0M
20260415T12Z_MSC_GDPS_WindDir_IsbL-0200_LatLon0.15_PT093H.grib2 2026-04-15 16:25 1.1M
20260415T12Z_MSC_GDPS_WindDir_IsbL-0225_LatLon0.15_PT093H.grib2 2026-04-15 16:25 1.1M
20260415T12Z_MSC_GDPS_WindDir_IsbL-0250_LatLon0.15_PT093H.grib2 2026-04-15 16:25 1.1M
20260415T12Z_MSC_GDPS_WindDir_IsbL-0275_LatLon0.15_PT093H.grib2 2026-04-15 16:25 1.2M
20260415T12Z_MSC_GDPS_WindDir_IsbL-0300_LatLon0.15_PT093H.grib2 2026-04-15 16:25 1.2M
20260415T12Z_MSC_GDPS_WindDir_IsbL-0350_LatLon0.15_PT093H.grib2 2026-04-15 16:25 1.2M
20260415T12Z_MSC_GDPS_WindDir_IsbL-0400_LatLon0.15_PT093H.grib2 2026-04-15 16:25 1.2M
20260415T12Z_MSC_GDPS_WindDir_IsbL-0450_LatLon0.15_PT093H.grib2 2026-04-15 16:25 1.3M
20260415T12Z_MSC_GDPS_WindDir_IsbL-0500_LatLon0.15_PT093H.grib2 2026-04-15 16:25 1.3M
20260415T12Z_MSC_GDPS_WindDir_IsbL-0550_LatLon0.15_PT093H.grib2 2026-04-15 16:25 1.4M
20260415T12Z_MSC_GDPS_WindDir_IsbL-0600_LatLon0.15_PT093H.grib2 2026-04-15 16:25 1.4M
20260415T12Z_MSC_GDPS_WindDir_IsbL-0650_LatLon0.15_PT093H.grib2 2026-04-15 16:25 1.5M
20260415T12Z_MSC_GDPS_WindDir_IsbL-0700_LatLon0.15_PT093H.grib2 2026-04-15 16:25 1.6M
20260415T12Z_MSC_GDPS_WindDir_IsbL-0750_LatLon0.15_PT093H.grib2 2026-04-15 16:25 1.7M
20260415T12Z_MSC_GDPS_WindDir_IsbL-0800_LatLon0.15_PT093H.grib2 2026-04-15 16:25 1.8M
20260415T12Z_MSC_GDPS_WindDir_IsbL-0850_LatLon0.15_PT093H.grib2 2026-04-15 16:25 1.9M
20260415T12Z_MSC_GDPS_WindDir_IsbL-0875_LatLon0.15_PT093H.grib2 2026-04-15 16:25 2.0M
20260415T12Z_MSC_GDPS_WindDir_IsbL-0900_LatLon0.15_PT093H.grib2 2026-04-15 16:25 2.0M
20260415T12Z_MSC_GDPS_WindDir_IsbL-0925_LatLon0.15_PT093H.grib2 2026-04-15 16:25 2.0M
20260415T12Z_MSC_GDPS_WindDir_IsbL-0950_LatLon0.15_PT093H.grib2 2026-04-15 16:25 2.0M
20260415T12Z_MSC_GDPS_WindDir_IsbL-0970_LatLon0.15_PT093H.grib2 2026-04-15 16:25 2.0M
20260415T12Z_MSC_GDPS_WindDir_IsbL-0985_LatLon0.15_PT093H.grib2 2026-04-15 16:25 2.0M
20260415T12Z_MSC_GDPS_WindDir_IsbL-1000_LatLon0.15_PT093H.grib2 2026-04-15 16:25 2.1M
20260415T12Z_MSC_GDPS_WindDir_IsbL-1015_LatLon0.15_PT093H.grib2 2026-04-15 16:25 2.0M
20260415T12Z_MSC_GDPS_WindGust-Max_AGL-10m_LatLon0.15_PT093H.grib2 2026-04-15 16:25 2.3M
20260415T12Z_MSC_GDPS_WindGust-Min_AGL-10m_LatLon0.15_PT093H.grib2 2026-04-15 16:25 2.2M
20260415T12Z_MSC_GDPS_WindGust_AGL-10m_LatLon0.15_PT093H.grib2 2026-04-15 16:25 2.2M
20260415T12Z_MSC_GDPS_WindSpeed_AGL-10m_LatLon0.15_PT093H.grib2 2026-04-15 16:25 1.1M
20260415T12Z_MSC_GDPS_WindSpeed_AGL-120m_LatLon0.15_PT093H.grib2 2026-04-15 16:25 1.2M
20260415T12Z_MSC_GDPS_WindSpeed_AGL-40m_LatLon0.15_PT093H.grib2 2026-04-15 16:25 1.2M
20260415T12Z_MSC_GDPS_WindSpeed_AGL-80m_LatLon0.15_PT093H.grib2 2026-04-15 16:25 1.2M
20260415T12Z_MSC_GDPS_WindSpeed_IsbL-0001_LatLon0.15_PT093H.grib2 2026-04-15 16:25 633K
20260415T12Z_MSC_GDPS_WindSpeed_IsbL-0005_LatLon0.15_PT093H.grib2 2026-04-15 16:25 687K
20260415T12Z_MSC_GDPS_WindSpeed_IsbL-0010_LatLon0.15_PT093H.grib2 2026-04-15 16:25 623K
20260415T12Z_MSC_GDPS_WindSpeed_IsbL-0020_LatLon0.15_PT093H.grib2 2026-04-15 16:25 854K
20260415T12Z_MSC_GDPS_WindSpeed_IsbL-0030_LatLon0.15_PT093H.grib2 2026-04-15 16:25 850K
20260415T12Z_MSC_GDPS_WindSpeed_IsbL-0050_LatLon0.15_PT093H.grib2 2026-04-15 16:25 908K
20260415T12Z_MSC_GDPS_WindSpeed_IsbL-0100_LatLon0.15_PT093H.grib2 2026-04-15 16:25 1.1M
20260415T12Z_MSC_GDPS_WindSpeed_IsbL-0150_LatLon0.15_PT093H.grib2 2026-04-15 16:25 1.0M
20260415T12Z_MSC_GDPS_WindSpeed_IsbL-0175_LatLon0.15_PT093H.grib2 2026-04-15 16:25 1.0M
20260415T12Z_MSC_GDPS_WindSpeed_IsbL-0200_LatLon0.15_PT093H.grib2 2026-04-15 16:25 1.0M
20260415T12Z_MSC_GDPS_WindSpeed_IsbL-0225_LatLon0.15_PT093H.grib2 2026-04-15 16:25 1.1M
20260415T12Z_MSC_GDPS_WindSpeed_IsbL-0250_LatLon0.15_PT093H.grib2 2026-04-15 16:25 1.1M
20260415T12Z_MSC_GDPS_WindSpeed_IsbL-0275_LatLon0.15_PT093H.grib2 2026-04-15 16:25 1.1M
20260415T12Z_MSC_GDPS_WindSpeed_IsbL-0300_LatLon0.15_PT093H.grib2 2026-04-15 16:25 1.1M
20260415T12Z_MSC_GDPS_WindSpeed_IsbL-0350_LatLon0.15_PT093H.grib2 2026-04-15 16:25 1.1M
20260415T12Z_MSC_GDPS_WindSpeed_IsbL-0400_LatLon0.15_PT093H.grib2 2026-04-15 16:25 1.1M
20260415T12Z_MSC_GDPS_WindSpeed_IsbL-0450_LatLon0.15_PT093H.grib2 2026-04-15 16:25 1.1M
20260415T12Z_MSC_GDPS_WindSpeed_IsbL-0500_LatLon0.15_PT093H.grib2 2026-04-15 16:25 1.1M
20260415T12Z_MSC_GDPS_WindSpeed_IsbL-0550_LatLon0.15_PT093H.grib2 2026-04-15 16:25 1.1M
20260415T12Z_MSC_GDPS_WindSpeed_IsbL-0600_LatLon0.15_PT093H.grib2 2026-04-15 16:25 1.1M
20260415T12Z_MSC_GDPS_WindSpeed_IsbL-0650_LatLon0.15_PT093H.grib2 2026-04-15 16:25 1.4M
20260415T12Z_MSC_GDPS_WindSpeed_IsbL-0700_LatLon0.15_PT093H.grib2 2026-04-15 16:25 1.5M
20260415T12Z_MSC_GDPS_WindSpeed_IsbL-0750_LatLon0.15_PT093H.grib2 2026-04-15 16:25 1.6M
20260415T12Z_MSC_GDPS_WindSpeed_IsbL-0800_LatLon0.15_PT093H.grib2 2026-04-15 16:25 1.7M
20260415T12Z_MSC_GDPS_WindSpeed_IsbL-0850_LatLon0.15_PT093H.grib2 2026-04-15 16:25 1.8M
20260415T12Z_MSC_GDPS_WindSpeed_IsbL-0875_LatLon0.15_PT093H.grib2 2026-04-15 16:25 1.8M
20260415T12Z_MSC_GDPS_WindSpeed_IsbL-0900_LatLon0.15_PT093H.grib2 2026-04-15 16:25 1.9M
20260415T12Z_MSC_GDPS_WindSpeed_IsbL-0925_LatLon0.15_PT093H.grib2 2026-04-15 16:25 1.9M
20260415T12Z_MSC_GDPS_WindSpeed_IsbL-0950_LatLon0.15_PT093H.grib2 2026-04-15 16:25 1.9M
20260415T12Z_MSC_GDPS_WindSpeed_IsbL-0970_LatLon0.15_PT093H.grib2 2026-04-15 16:25 1.8M
20260415T12Z_MSC_GDPS_WindSpeed_IsbL-0985_LatLon0.15_PT093H.grib2 2026-04-15 16:25 1.8M
20260415T12Z_MSC_GDPS_WindSpeed_IsbL-1000_LatLon0.15_PT093H.grib2 2026-04-15 16:25 1.8M
20260415T12Z_MSC_GDPS_WindSpeed_IsbL-1015_LatLon0.15_PT093H.grib2 2026-04-15 16:25 1.8M
20260415T12Z_MSC_GDPS_WindU_AGL-10m_LatLon0.15_PT093H.grib2 2026-04-15 16:25 1.3M
20260415T12Z_MSC_GDPS_WindU_AGL-120m_LatLon0.15_PT093H.grib2 2026-04-15 16:25 958K
20260415T12Z_MSC_GDPS_WindU_AGL-40m_LatLon0.15_PT093H.grib2 2026-04-15 16:25 956K
20260415T12Z_MSC_GDPS_WindU_AGL-80m_LatLon0.15_PT093H.grib2 2026-04-15 16:25 959K
20260415T12Z_MSC_GDPS_WindU_IsbL-0001_LatLon0.15_PT093H.grib2 2026-04-15 16:25 493K
20260415T12Z_MSC_GDPS_WindU_IsbL-0005_LatLon0.15_PT093H.grib2 2026-04-15 16:25 689K
20260415T12Z_MSC_GDPS_WindU_IsbL-0010_LatLon0.15_PT093H.grib2 2026-04-15 16:25 699K
20260415T12Z_MSC_GDPS_WindU_IsbL-0020_LatLon0.15_PT093H.grib2 2026-04-15 16:25 732K
20260415T12Z_MSC_GDPS_WindU_IsbL-0030_LatLon0.15_PT093H.grib2 2026-04-15 16:25 732K
20260415T12Z_MSC_GDPS_WindU_IsbL-0050_LatLon0.15_PT093H.grib2 2026-04-15 16:25 700K
20260415T12Z_MSC_GDPS_WindU_IsbL-0100_LatLon0.15_PT093H.grib2 2026-04-15 16:25 920K
20260415T12Z_MSC_GDPS_WindU_IsbL-0150_LatLon0.15_PT093H.grib2 2026-04-15 16:25 1.0M
20260415T12Z_MSC_GDPS_WindU_IsbL-0175_LatLon0.15_PT093H.grib2 2026-04-15 16:25 1.0M
20260415T12Z_MSC_GDPS_WindU_IsbL-0200_LatLon0.15_PT093H.grib2 2026-04-15 16:25 1.0M
20260415T12Z_MSC_GDPS_WindU_IsbL-0225_LatLon0.15_PT093H.grib2 2026-04-15 16:25 849K
20260415T12Z_MSC_GDPS_WindU_IsbL-0250_LatLon0.15_PT093H.grib2 2026-04-15 16:25 848K
20260415T12Z_MSC_GDPS_WindU_IsbL-0275_LatLon0.15_PT093H.grib2 2026-04-15 16:25 875K
20260415T12Z_MSC_GDPS_WindU_IsbL-0300_LatLon0.15_PT093H.grib2 2026-04-15 16:25 865K
20260415T12Z_MSC_GDPS_WindU_IsbL-0350_LatLon0.15_PT093H.grib2 2026-04-15 16:25 1.1M
20260415T12Z_MSC_GDPS_WindU_IsbL-0400_LatLon0.15_PT093H.grib2 2026-04-15 16:25 1.1M
20260415T12Z_MSC_GDPS_WindU_IsbL-0450_LatLon0.15_PT093H.grib2 2026-04-15 16:25 1.1M
20260415T12Z_MSC_GDPS_WindU_IsbL-0500_LatLon0.15_PT093H.grib2 2026-04-15 16:25 1.1M
20260415T12Z_MSC_GDPS_WindU_IsbL-0550_LatLon0.15_PT093H.grib2 2026-04-15 16:25 1.1M
20260415T12Z_MSC_GDPS_WindU_IsbL-0600_LatLon0.15_PT093H.grib2 2026-04-15 16:25 1.1M
20260415T12Z_MSC_GDPS_WindU_IsbL-0650_LatLon0.15_PT093H.grib2 2026-04-15 16:25 1.2M
20260415T12Z_MSC_GDPS_WindU_IsbL-0700_LatLon0.15_PT093H.grib2 2026-04-15 16:25 1.2M
20260415T12Z_MSC_GDPS_WindU_IsbL-0750_LatLon0.15_PT093H.grib2 2026-04-15 16:25 1.3M
20260415T12Z_MSC_GDPS_WindU_IsbL-0800_LatLon0.15_PT093H.grib2 2026-04-15 16:25 1.3M
20260415T12Z_MSC_GDPS_WindU_IsbL-0850_LatLon0.15_PT093H.grib2 2026-04-15 16:25 1.4M
20260415T12Z_MSC_GDPS_WindU_IsbL-0875_LatLon0.15_PT093H.grib2 2026-04-15 16:25 1.4M
20260415T12Z_MSC_GDPS_WindU_IsbL-0900_LatLon0.15_PT093H.grib2 2026-04-15 16:25 1.4M
20260415T12Z_MSC_GDPS_WindU_IsbL-0925_LatLon0.15_PT093H.grib2 2026-04-15 16:25 1.4M
20260415T12Z_MSC_GDPS_WindU_IsbL-0950_LatLon0.15_PT093H.grib2 2026-04-15 16:25 1.4M
20260415T12Z_MSC_GDPS_WindU_IsbL-0970_LatLon0.15_PT093H.grib2 2026-04-15 16:25 1.4M
20260415T12Z_MSC_GDPS_WindU_IsbL-0985_LatLon0.15_PT093H.grib2 2026-04-15 16:25 1.4M
20260415T12Z_MSC_GDPS_WindU_IsbL-1000_LatLon0.15_PT093H.grib2 2026-04-15 16:25 1.4M
20260415T12Z_MSC_GDPS_WindU_IsbL-1015_LatLon0.15_PT093H.grib2 2026-04-15 16:25 1.3M
20260415T12Z_MSC_GDPS_WindV_AGL-10m_LatLon0.15_PT093H.grib2 2026-04-15 16:25 1.6M
20260415T12Z_MSC_GDPS_WindV_AGL-120m_LatLon0.15_PT093H.grib2 2026-04-15 16:25 963K
20260415T12Z_MSC_GDPS_WindV_AGL-40m_LatLon0.15_PT093H.grib2 2026-04-15 16:25 1.2M
20260415T12Z_MSC_GDPS_WindV_AGL-80m_LatLon0.15_PT093H.grib2 2026-04-15 16:25 965K
20260415T12Z_MSC_GDPS_WindV_IsbL-0001_LatLon0.15_PT093H.grib2 2026-04-15 16:25 758K
20260415T12Z_MSC_GDPS_WindV_IsbL-0005_LatLon0.15_PT093H.grib2 2026-04-15 16:25 777K
20260415T12Z_MSC_GDPS_WindV_IsbL-0010_LatLon0.15_PT093H.grib2 2026-04-15 16:25 800K
20260415T12Z_MSC_GDPS_WindV_IsbL-0020_LatLon0.15_PT093H.grib2 2026-04-15 16:25 849K
20260415T12Z_MSC_GDPS_WindV_IsbL-0030_LatLon0.15_PT093H.grib2 2026-04-15 16:25 846K
20260415T12Z_MSC_GDPS_WindV_IsbL-0050_LatLon0.15_PT093H.grib2 2026-04-15 16:25 1.0M
20260415T12Z_MSC_GDPS_WindV_IsbL-0100_LatLon0.15_PT093H.grib2 2026-04-15 16:25 844K
20260415T12Z_MSC_GDPS_WindV_IsbL-0150_LatLon0.15_PT093H.grib2 2026-04-15 16:25 1.0M
20260415T12Z_MSC_GDPS_WindV_IsbL-0175_LatLon0.15_PT093H.grib2 2026-04-15 16:25 1.0M
20260415T12Z_MSC_GDPS_WindV_IsbL-0200_LatLon0.15_PT093H.grib2 2026-04-15 16:25 837K
20260415T12Z_MSC_GDPS_WindV_IsbL-0225_LatLon0.15_PT093H.grib2 2026-04-15 16:25 903K
20260415T12Z_MSC_GDPS_WindV_IsbL-0250_LatLon0.15_PT093H.grib2 2026-04-15 16:25 902K
20260415T12Z_MSC_GDPS_WindV_IsbL-0275_LatLon0.15_PT093H.grib2 2026-04-15 16:25 929K
20260415T12Z_MSC_GDPS_WindV_IsbL-0300_LatLon0.15_PT093H.grib2 2026-04-15 16:25 919K
20260415T12Z_MSC_GDPS_WindV_IsbL-0350_LatLon0.15_PT093H.grib2 2026-04-15 16:25 934K
20260415T12Z_MSC_GDPS_WindV_IsbL-0400_LatLon0.15_PT093H.grib2 2026-04-15 16:25 875K
20260415T12Z_MSC_GDPS_WindV_IsbL-0450_LatLon0.15_PT093H.grib2 2026-04-15 16:25 874K
20260415T12Z_MSC_GDPS_WindV_IsbL-0500_LatLon0.15_PT093H.grib2 2026-04-15 16:25 877K
20260415T12Z_MSC_GDPS_WindV_IsbL-0550_LatLon0.15_PT093H.grib2 2026-04-15 16:25 1.1M
20260415T12Z_MSC_GDPS_WindV_IsbL-0600_LatLon0.15_PT093H.grib2 2026-04-15 16:25 1.1M
20260415T12Z_MSC_GDPS_WindV_IsbL-0650_LatLon0.15_PT093H.grib2 2026-04-15 16:25 1.2M
20260415T12Z_MSC_GDPS_WindV_IsbL-0700_LatLon0.15_PT093H.grib2 2026-04-15 16:25 1.2M
20260415T12Z_MSC_GDPS_WindV_IsbL-0750_LatLon0.15_PT093H.grib2 2026-04-15 16:25 1.2M
20260415T12Z_MSC_GDPS_WindV_IsbL-0800_LatLon0.15_PT093H.grib2 2026-04-15 16:25 1.3M
20260415T12Z_MSC_GDPS_WindV_IsbL-0850_LatLon0.15_PT093H.grib2 2026-04-15 16:25 1.4M
20260415T12Z_MSC_GDPS_WindV_IsbL-0875_LatLon0.15_PT093H.grib2 2026-04-15 16:25 1.4M
20260415T12Z_MSC_GDPS_WindV_IsbL-0900_LatLon0.15_PT093H.grib2 2026-04-15 16:25 1.4M
20260415T12Z_MSC_GDPS_WindV_IsbL-0925_LatLon0.15_PT093H.grib2 2026-04-15 16:25 1.4M
20260415T12Z_MSC_GDPS_WindV_IsbL-0950_LatLon0.15_PT093H.grib2 2026-04-15 16:25 1.4M
20260415T12Z_MSC_GDPS_WindV_IsbL-0970_LatLon0.15_PT093H.grib2 2026-04-15 16:25 1.4M
20260415T12Z_MSC_GDPS_WindV_IsbL-0985_LatLon0.15_PT093H.grib2 2026-04-15 16:25 1.4M
20260415T12Z_MSC_GDPS_WindV_IsbL-1000_LatLon0.15_PT093H.grib2 2026-04-15 16:25 1.7M
20260415T12Z_MSC_GDPS_WindV_IsbL-1015_LatLon0.15_PT093H.grib2 2026-04-15 16:25 1.6M